TimeCST,TemperatureF,Dew PointF,Humidity,Sea Level PressureIn,VisibilityMPH,Wind Direction,Wind SpeedMPH,Gust SpeedMPH,PrecipitationIn,Events,Conditions,WindDirDegrees,DateUTC
12:15 AM,28.0,28.0,100,30.12,5.0,Calm,Calm,-,N/A,,Clear,0,2012-11-06 06:15:00
12:35 AM,28.6,28.4,99,30.12,5.0,Calm,Calm,-,N/A,,Clear,0,2012-11-06 06:35:00
12:55 AM,29.3,29.1,99,30.12,7.0,North,3.5,-,N/A,,Clear,10,2012-11-06 06:55:00
1:15 AM,28.9,28.8,99,30.12,5.0,North,3.5,-,N/A,,Clear,360,2012-11-06 07:15:00
1:35 AM,28.8,28.8,100,30.12,5.0,NE,3.5,-,N/A,,Clear,40,2012-11-06 07:35:00
1:55 AM,28.6,28.0,98,30.11,3.0,ENE,4.6,-,N/A,,Clear,70,2012-11-06 07:55:00
2:15 AM,28.0,27.5,98,30.09,2.5,East,4.6,-,N/A,,Clear,90,2012-11-06 08:15:00
2:35 AM,27.0,26.6,99,30.09,1.5,Calm,Calm,-,N/A,,Mist,0,2012-11-06 08:35:00
2:55 AM,28.0,27.5,98,30.08,5.0,Calm,Calm,-,N/A,,Clear,0,2012-11-06 08:55:00
3:15 AM,27.5,27.5,100,30.08,4.0,Calm,Calm,-,N/A,,Clear,0,2012-11-06 09:15:00
3:35 AM,26.2,25.5,97,30.07,4.0,Calm,Calm,-,N/A,,Clear,0,2012-11-06 09:35:00
3:55 AM,26.8,26.6,99,30.06,3.0,ESE,3.5,-,N/A,,Clear,110,2012-11-06 09:55:00
4:15 AM,25.5,25.0,98,30.07,5.0,Calm,Calm,-,N/A,,Clear,0,2012-11-06 10:15:00
4:35 AM,27.3,27.3,100,30.07,4.0,Calm,Calm,-,N/A,,Clear,0,2012-11-06 10:35:00
4:55 AM,25.0,25.0,100,30.07,2.5,Calm,Calm,-,N/A,,Clear,0,2012-11-06 10:55:00
5:35 AM,25.9,25.9,100,30.07,0.2,Calm,Calm,-,N/A,Fog,Light Freezing Fog,0,2012-11-06 11:35:00
5:55 AM,26.6,26.1,98,30.06,7.0,Calm,Calm,-,N/A,,Clear,0,2012-11-06 11:55:00
6:15 AM,25.7,25.5,99,30.06,5.0,Calm,Calm,-,N/A,,Clear,0,2012-11-06 12:15:00
6:35 AM,25.7,25.5,99,30.05,3.0,ESE,3.5,-,N/A,,Clear,110,2012-11-06 12:35:00
6:55 AM,25.3,24.8,98,30.05,4.0,Calm,Calm,-,N/A,,Clear,0,2012-11-06 12:55:00
7:15 AM,25.9,25.5,99,30.04,4.0,East,5.8,-,N/A,,Clear,100,2012-11-06 13:15:00
7:35 AM,28.9,28.4,98,30.04,5.0,NE,6.9,-,N/A,,Scattered Clouds,50,2012-11-06 13:35:00
7:55 AM,30.7,29.3,94,30.05,7.0,SE,4.6,-,N/A,,Overcast,130,2012-11-06 13:55:00
8:15 AM,31.8,30.2,94,30.05,5.0,Calm,Calm,-,N/A,,Overcast,0,2012-11-06 14:15:00
8:35 AM,32.5,31.3,95,30.04,7.0,Calm,Calm,-,N/A,,Overcast,0,2012-11-06 14:35:00
8:55 AM,33.4,31.5,92,30.04,7.0,Calm,Calm,-,N/A,,Overcast,0,2012-11-06 14:55:00
9:15 AM,34.7,31.6,89,30.04,7.0,SSE,4.6,-,N/A,,Overcast,150,2012-11-06 15:15:00
9:35 AM,35.6,32.0,87,30.03,7.0,SE,3.5,-,N/A,,Overcast,130,2012-11-06 15:35:00
9:55 AM,36.0,32.2,86,30.02,7.0,SE,3.5,-,N/A,,Overcast,130,2012-11-06 15:55:00
10:15 AM,37.0,32.9,85,30.02,7.0,SE,3.5,-,N/A,,Overcast,130,2012-11-06 16:15:00
10:35 AM,38.3,32.7,80,30.01,7.0,SE,3.5,-,N/A,,Overcast,130,2012-11-06 16:35:00
10:55 AM,39.6,33.1,78,30.01,10.0,SE,4.6,-,N/A,,Overcast,140,2012-11-06 16:55:00
11:15 AM,40.1,33.4,77,30.00,10.0,SSE,4.6,-,N/A,,Overcast,150,2012-11-06 17:15:00
11:35 AM,40.5,33.6,77,29.98,10.0,SSE,4.6,-,N/A,,Overcast,150,2012-11-06 17:35:00
11:55 AM,41.0,33.8,76,29.97,10.0,South,5.8,-,N/A,,Overcast,170,2012-11-06 17:55:00
12:15 PM,42.4,33.4,70,29.96,10.0,South,9.2,-,N/A,,Overcast,170,2012-11-06 18:15:00
12:35 PM,42.6,33.1,69,29.96,10.0,South,8.1,-,N/A,,Light Drizzle,190,2012-11-06 18:35:00
12:55 PM,42.8,33.4,70,29.96,10.0,SSW,4.6,-,N/A,Rain,Light Rain,200,2012-11-06 18:55:00
1:15 PM,43.0,33.8,70,29.95,10.0,SSW,5.8,-,N/A,,Light Drizzle,200,2012-11-06 19:15:00
1:35 PM,42.3,34.7,75,29.94,7.0,SW,5.8,-,N/A,,Light Drizzle,220,2012-11-06 19:35:00
1:55 PM,41.7,36.1,81,29.94,7.0,SSW,9.2,-,N/A,,Drizzle,210,2012-11-06 19:55:00
2:15 PM,41.4,36.9,84,29.93,7.0,SW,6.9,-,N/A,,Drizzle,230,2012-11-06 20:15:00
2:35 PM,41.2,37.8,88,29.94,5.0,SSW,8.1,-,N/A,Rain,Rain,210,2012-11-06 20:35:00
2:55 PM,40.8,37.6,88,29.93,5.0,SSW,5.8,-,0.01,,Drizzle,200,2012-11-06 20:55:00
3:15 PM,40.3,37.4,89,29.93,7.0,SSW,5.8,-,N/A,Rain,Light Rain,200,2012-11-06 21:15:00
3:35 PM,40.1,37.4,90,29.93,5.0,SSW,4.6,-,0.01,,Drizzle,200,2012-11-06 21:35:00
3:55 PM,40.1,37.4,90,29.93,5.0,South,5.8,-,0.01,,Light Drizzle,180,2012-11-06 21:55:00
4:15 PM,39.7,37.6,92,29.93,5.0,SSE,4.6,-,N/A,,Light Drizzle,150,2012-11-06 22:15:00
4:35 PM,39.6,37.6,93,29.92,5.0,SE,6.9,-,N/A,,Drizzle,140,2012-11-06 22:35:00
4:55 PM,39.4,37.6,93,29.92,5.0,SE,3.5,-,N/A,,Drizzle,140,2012-11-06 22:55:00
5:15 PM,39.2,37.9,95,29.92,5.0,SE,3.5,-,N/A,,Light Drizzle,140,2012-11-06 23:15:00
5:35 PM,39.2,38.1,96,29.92,4.0,SE,3.5,-,N/A,,Drizzle,140,2012-11-06 23:35:00
5:55 PM,39.2,37.9,95,29.93,4.0,SE,3.5,-,N/A,Rain,Rain,140,2012-11-06 23:55:00
6:15 PM,39.2,37.8,95,29.93,4.0,SE,4.6,-,0.01,,Drizzle,130,2012-11-07 00:15:00
6:35 PM,39.0,37.8,95,29.93,3.0,SE,4.6,-,0.01,,Drizzle,130,2012-11-07 00:35:00
6:55 PM,39.2,38.3,97,29.92,3.0,SE,3.5,-,0.01,,Light Drizzle,130,2012-11-07 00:55:00
7:15 PM,39.2,38.3,97,29.92,3.0,SE,3.5,-,0.01,,Light Drizzle,130,2012-11-07 01:15:00
7:35 PM,39.2,38.7,98,29.92,2.5,SE,4.6,-,0.01,,Drizzle,130,2012-11-07 01:35:00
7:55 PM,39.2,38.7,98,29.92,2.5,SE,3.5,-,0.01,,Drizzle,130,2012-11-07 01:55:00
8:15 PM,39.4,38.8,98,29.91,2.5,SE,4.6,-,N/A,,Drizzle,130,2012-11-07 02:15:00
8:35 PM,39.4,38.8,98,29.91,2.5,SE,4.6,-,N/A,Rain,Rain,130,2012-11-07 02:35:00
8:55 PM,39.4,38.8,98,29.91,3.0,SE,5.8,-,0.01,Rain,Light Rain,140,2012-11-07 02:55:00
9:15 PM,39.6,39.0,98,29.91,3.0,SE,4.6,-,0.01,Rain,Rain,140,2012-11-07 03:15:00
9:35 PM,39.6,39.2,99,29.91,2.5,SE,4.6,-,0.01,,Drizzle,130,2012-11-07 03:35:00
9:55 PM,39.7,39.2,98,29.90,2.5,SE,4.6,-,0.02,,Drizzle,130,2012-11-07 03:55:00
10:15 PM,39.6,39.2,99,29.90,2.5,SE,4.6,-,N/A,Rain,Light Rain,140,2012-11-07 04:15:00
10:35 PM,39.6,39.2,99,29.89,3.0,SE,4.6,-,0.01,,Drizzle,130,2012-11-07 04:35:00
10:55 PM,39.7,39.2,98,29.89,3.0,SE,4.6,-,0.01,,Drizzle,130,2012-11-07 04:55:00
11:15 PM,39.7,39.2,98,29.89,3.0,SE,4.6,-,N/A,,Drizzle,130,2012-11-07 05:15:00
11:35 PM,39.7,39.2,98,29.89,3.0,SE,5.8,-,N/A,,Drizzle,130,2012-11-07 05:35:00
11:55 PM,39.9,39.2,97,29.89,3.0,SE,5.8,-,N/A,,Drizzle,130,2012-11-07 05:55:00